Location: Unspecified
(0.0000°N, 0.0000°E)
Time: 20:48:23
(UTC+00:00)

Vanguard 2 Rocket - All Passes

Search period start: 14 July 2020 00:00
Search period end: 24 July 2020 00:00
Orbit: 556 x 3325 km, 32.9° (Epoch: 14 July)

Date Brightness Start Highest point End Pass type
(mag) Time Alt. Az. Time Alt. Az. Time Alt. Az.
14 Jul - 00:18:40 10° W 00:35:26 36° NNW 00:52:13 10° NNE visible
14 Jul - 02:47:14 10° NW 02:57:47 17° NNW 03:06:46 10° NNE visible
14 Jul - 05:15:21 10° NNW 05:19:58 12° N 05:23:54 10° NNE visible
14 Jul - 07:31:04 10° NNW 07:38:12 23° NNE 07:43:03 10° ENE daylight
14 Jul - 09:46:14 10° WNW 09:52:31 69° SW 09:56:45 10° SE daylight
14 Jul - 18:47:46 10° SSW 18:56:53 30° SE 19:10:33 10° E visible
14 Jul - 20:59:35 10° SW 21:13:17 84° SE 21:33:39 10° NE visible
14 Jul - 23:15:59 10° W 23:32:28 46° NNW 23:51:17 10° NE visible
15 Jul - 01:40:40 10° WNW 01:54:21 21° NNW 02:06:35 10° NNE visible
15 Jul - 04:11:01 10° NNW 04:17:30 13° N 04:22:59 10° NNE visible
15 Jul - 06:29:57 10° NNW 06:37:25 19° NNE 06:42:45 10° ENE daylight
15 Jul - 08:45:18 10° NW 08:53:08 64° NNE 08:57:54 10° ESE daylight
15 Jul - 11:03:35 10° WSW 11:05:46 13° SW 11:07:45 10° S daylight
15 Jul - 17:50:04 10° S 17:56:13 18° SE 18:04:30 10° ESE daylight
15 Jul - 20:00:05 10° SW 20:11:48 63° SE 20:30:34 10° ENE visible
15 Jul - 22:14:30 10° WSW 22:29:45 58° NNW 22:49:46 10° NE visible
16 Jul - 00:35:35 10° WNW 00:50:52 27° NNW 01:05:56 10° NNE visible
16 Jul - 03:05:12 10° NW 03:14:22 15° N 03:22:10 10° NNE visible
16 Jul - 05:28:08 10° NNW 05:36:01 17° NNE 05:41:55 10° NE visible
16 Jul - 07:44:13 10° NW 07:53:14 41° NNE 07:58:39 10° E daylight
16 Jul - 10:01:12 10° W 10:06:35 30° SW 10:10:28 10° SSE daylight
16 Jul - 19:01:10 10° SSW 19:10:54 44° SE 19:26:42 10° ENE visible
16 Jul - 21:13:56 10° WSW 21:27:30 74° NW 21:47:44 10° NE visible
16 Jul - 23:32:03 10° W 23:47:34 35° NNW 00:04:53 10° NNE visible
17 Jul - 01:58:55 10° NW 02:10:45 18° NNW 02:21:14 10° NNE visible
17 Jul - 04:25:20 10° NNW 04:33:54 16° N 04:40:38 10° NE visible
17 Jul - 06:42:52 10° NW 06:52:46 31° NNE 06:58:58 10° E daylight
17 Jul - 08:59:33 10° WNW 09:07:25 64° SW 09:12:12 10° SE daylight
17 Jul - 18:02:53 10° SSW 18:10:28 28° SE 18:21:59 10° E daylight
17 Jul - 20:14:06 10° SW 20:25:50 86° SE 20:45:06 10° NE visible
17 Jul - 22:29:51 10° W 22:44:34 44° NNW 23:03:23 10° NE visible
18 Jul - 00:53:16 10° WNW 01:06:55 22° NNW 01:20:06 10° NNE visible
18 Jul - 03:21:23 10° NNW 03:31:03 16° N 03:38:59 10° NE visible
18 Jul - 05:41:07 10° NNW 05:51:42 25° NNE 05:58:45 10° ENE visible
18 Jul - 07:57:57 10° NW 08:07:52 75° NNE 08:13:28 10° ESE daylight
18 Jul - 10:17:32 10° WSW 10:20:36 14° SW 10:23:10 10° S daylight
18 Jul - 17:05:46 10° S 17:10:16 15° SE 17:16:02 10° ESE daylight
18 Jul - 19:14:53 10° SW 19:24:48 64° SE 19:41:54 10° ENE visible
18 Jul - 21:28:46 10° WSW 21:42:04 55° NNW 22:01:27 10° NE visible
18 Jul - 23:48:55 10° WNW 00:03:14 27° NNW 00:18:42 10° NNE visible
19 Jul - 02:16:26 10° NW 02:27:30 17° N 02:37:08 10° NNE visible
19 Jul - 04:38:51 10° NNW 04:49:59 22° NNE 04:57:54 10° ENE visible
19 Jul - 06:56:15 10° NW 07:07:45 50° NNE 07:14:17 10° ESE daylight
19 Jul - 09:14:36 10° WNW 09:21:24 32° SW 09:25:54 10° SSE daylight
19 Jul - 18:16:14 10° SSW 18:24:24 42° SE 18:38:07 10° ENE visible
19 Jul - 20:28:31 10° WSW 20:40:08 70° NNW 20:59:07 10° NE visible
19 Jul - 22:45:57 10° W 22:59:53 33° NNW 23:17:00 10° NNE visible
20 Jul - 01:11:11 10° NW 01:23:32 19° N 01:35:09 10° NNE visible
20 Jul - 03:35:57 10° NNW 03:47:30 20° N 03:56:22 10° NE visible
20 Jul - 05:54:20 10° NW 06:07:01 38° NNE 06:14:37 10° E daylight
20 Jul - 08:12:18 10° WNW 08:22:05 62° SW 08:27:41 10° SE daylight
20 Jul - 17:18:14 10° SSW 17:24:25 25° SE 17:33:41 10° E daylight
20 Jul - 19:28:57 10° SW 19:38:52 89° SE 19:56:22 10° NE visible
20 Jul - 21:44:12 10° W 21:57:03 40° NNW 22:15:01 10° NE visible
21 Jul - 00:06:28 10° WNW 00:19:29 21° NNW 00:33:03 10° NNE visible
21 Jul - 02:32:23 10° NNW 02:44:16 18° N 02:54:10 10° NE visible
21 Jul - 04:52:10 10° NW 05:05:38 31° NNE 05:14:22 10° E visible
21 Jul - 07:10:05 10° NW 07:22:19 83° NE 07:28:57 10° ESE daylight
21 Jul - 09:30:52 10° W 09:35:20 17° SW 09:38:47 10° S daylight
21 Jul - 16:21:55 10° SSE 16:24:34 12° SE 16:27:41 10° ESE daylight
21 Jul - 18:29:56 10° SW 18:38:17 64° SE 18:53:16 10° ENE visible
21 Jul - 20:43:26 10° WSW 20:54:49 50° NNW 21:12:47 10° NE visible
21 Jul - 23:02:49 10° WNW 23:15:44 25° NNW 23:30:53 10° NNE visible
22 Jul - 01:28:17 10° NW 01:40:24 18° N 01:51:26 10° NE visible
22 Jul - 03:49:43 10° NNW 04:03:32 26° NNE 04:13:22 10° ENE visible
22 Jul - 06:07:50 10° NW 06:21:55 59° NNE 06:29:46 10° ESE daylight
22 Jul - 08:27:24 10° WNW 08:36:01 35° SW 08:41:23 10° SSE daylight
22 Jul - 17:31:29 10° SSW 17:38:18 40° SE 17:49:47 10° ENE daylight
22 Jul - 19:43:27 10° WSW 19:53:16 65° NNW 20:10:20 10° NE visible
22 Jul - 22:00:22 10° WNW 22:12:31 30° NNW 22:28:37 10° NNE visible
23 Jul - 00:24:03 10° NW 00:36:13 19° N 00:48:27 10° NE visible
23 Jul - 02:46:58 10° NNW 03:00:42 23° NNE 03:11:30 10° ENE visible
23 Jul - 05:05:32 10° NW 05:20:52 45° NNE 05:30:01 10° E visible
23 Jul - 07:24:29 10° WNW 07:36:28 61° SW 07:43:06 10° SE daylight
23 Jul - 16:33:43 10° S 16:38:41 22° SE 16:45:48 10° E daylight
23 Jul - 18:44:03 10° SW 18:52:23 87° NW 19:07:41 10° NE visible
23 Jul - 20:58:58 10° W 21:09:57 36° NNW 21:26:17 10° NE visible
23 Jul - 23:20:15 10° NW 23:32:07 20° N 23:45:25 10° NNE visible
